UAL155 PTSA-PKWA

Flight info

Callsign UAL155
Flight time 0h 58m
Altitude 31000
Route UKS STEFF
Aircraft B738/M-SDE2E3FGHIRWXY/LB1

Departure

Time 2026-04-28 15:22
Airport Kosrae International Airport (PTSA)

Arrival

Time 2026-04-28 16:21
Airport Bucholz Army Air Field (PKWA)
Time Latitude Longitude Altitude Speed Heading
2026-04-28 14:47 5.35338 162.95598 27 ft 0 kts 51°
2026-04-28 15:19 5.35339 162.95599 27 ft 0 kts 52°
2026-04-28 15:19 5.35350 162.95609 27 ft 5 kts 32°
2026-04-28 15:19 5.35390 162.95588 27 ft 10 kts 288°
2026-04-28 15:20 5.35436 162.95509 28 ft 16 kts 285°
2026-04-28 15:20 5.35396 162.95403 28 ft 17 kts 235°
2026-04-28 15:20 5.35329 162.95305 30 ft 17 kts 238°
2026-04-28 15:20 5.35300 162.95216 30 ft 12 kts 243°
2026-04-28 15:21 5.35269 162.95214 30 ft 5 kts 100°
2026-04-28 15:21 5.35286 162.95242 30 ft 5 kts 57°
2026-04-28 15:21 5.35288 162.95245 30 ft 0 kts 56°
2026-04-28 15:22 5.35319 162.95293 30 ft 34 kts 56°
2026-04-28 15:22 5.35592 162.95693 28 ft 103 kts 55°
2026-04-28 15:22 5.36108 162.96449 99 ft 151 kts 56°
2026-04-28 15:22 5.36689 162.97270 927 ft 134 kts 56°
2026-04-28 15:23 5.37240 162.98031 1380 ft 140 kts 56°
2026-04-28 15:23 5.37829 162.98852 1686 ft 155 kts 56°
2026-04-28 15:23 5.38530 162.99834 1708 ft 190 kts 56°
2026-04-28 15:23 5.39357 163.00991 1703 ft 217 kts 55°
2026-04-28 15:24 5.40273 163.02272 1716 ft 233 kts 55°
2026-04-28 15:24 5.41255 163.03646 2044 ft 249 kts 55°
2026-04-28 15:24 5.42273 163.05069 2700 ft 252 kts 56°
2026-04-28 15:24 5.43294 163.06498 3445 ft 253 kts 56°
2026-04-28 15:25 5.44315 163.07927 4082 ft 257 kts 56°
2026-04-28 15:25 5.45367 163.09400 4715 ft 262 kts 55°
2026-04-28 15:25 5.46437 163.10898 5355 ft 266 kts 55°
2026-04-28 15:25 5.47523 163.12419 5986 ft 270 kts 55°
2026-04-28 15:26 5.48623 163.13962 6649 ft 273 kts 55°
2026-04-28 15:26 5.49734 163.15518 7323 ft 276 kts 55°
2026-04-28 15:26 5.50863 163.17102 7968 ft 281 kts 55°
2026-04-28 15:26 5.52007 163.18705 8624 ft 284 kts 55°
2026-04-28 15:27 5.53167 163.20331 9291 ft 288 kts 55°
2026-04-28 15:27 5.54341 163.21978 9928 ft 293 kts 54°
2026-04-28 15:27 5.55550 163.23674 10287 ft 309 kts 54°
2026-04-28 15:27 5.56827 163.25464 10454 ft 330 kts 54°
2026-04-28 15:28 5.58189 163.27376 10804 ft 342 kts 54°
2026-04-28 15:28 5.59582 163.29330 11399 ft 345 kts 54°
2026-04-28 15:28 5.60984 163.31297 12087 ft 347 kts 54°
2026-04-28 15:28 5.62396 163.33278 12718 ft 351 kts 53°
2026-04-28 15:29 5.63828 163.35286 13280 ft 356 kts 53°
2026-04-28 15:29 5.65284 163.37327 13870 ft 362 kts 54°
2026-04-28 15:29 5.66757 163.39393 14480 ft 366 kts 54°
2026-04-28 15:29 5.68243 163.41482 15100 ft 369 kts 54°
2026-04-28 15:30 5.69744 163.43591 15706 ft 373 kts 54°
2026-04-28 15:30 5.71262 163.45724 16300 ft 377 kts 54°
2026-04-28 15:30 5.72793 163.47875 16895 ft 380 kts 54°
2026-04-28 15:30 5.74341 163.50048 17456 ft 384 kts 54°
2026-04-28 15:31 5.75907 163.52248 17989 ft 389 kts 54°
2026-04-28 15:31 5.77485 163.54465 18534 ft 392 kts 54°
2026-04-28 15:31 5.79072 163.56695 19106 ft 394 kts 54°
2026-04-28 15:31 5.80672 163.58943 19631 ft 397 kts 54°
2026-04-28 15:32 5.82281 163.61205 20147 ft 400 kts 54°
2026-04-28 15:32 5.83352 163.62711 20480 ft 401 kts 54°
2026-04-28 15:32 5.85510 163.65743 21119 ft 405 kts 54°
2026-04-28 15:32 5.87156 163.68058 21563 ft 408 kts 54°
2026-04-28 15:33 5.88811 163.70383 22024 ft 410 kts 54°
2026-04-28 15:33 5.90475 163.72723 22473 ft 412 kts 54°
2026-04-28 15:33 5.92148 163.75076 22882 ft 415 kts 54°
2026-04-28 15:33 5.93835 163.77449 23300 ft 417 kts 54°
2026-04-28 15:34 5.95524 163.79826 23692 ft 420 kts 54°
2026-04-28 15:34 5.97227 163.82221 24081 ft 422 kts 54°
2026-04-28 15:34 5.98937 163.84627 24447 ft 424 kts 54°
2026-04-28 15:34 6.00657 163.87048 24812 ft 426 kts 54°
2026-04-28 15:35 6.02383 163.89476 25174 ft 428 kts 54°
2026-04-28 15:35 6.05860 163.94370 25869 ft 432 kts 54°
2026-04-28 15:35 6.07608 163.96831 26224 ft 433 kts 54°
2026-04-28 15:36 6.09339 163.99269 26548 ft 435 kts 54°
2026-04-28 15:36 6.11106 164.01758 26860 ft 437 kts 54°
2026-04-28 15:36 6.12878 164.04254 27184 ft 439 kts 54°
2026-04-28 15:36 6.14653 164.06753 27494 ft 440 kts 54°
2026-04-28 15:37 6.16433 164.09261 27929 ft 439 kts 54°
2026-04-28 15:37 6.18201 164.11751 28390 ft 436 kts 54°
2026-04-28 15:37 6.19958 164.14227 28863 ft 434 kts 54°
2026-04-28 15:37 6.21118 164.15861 29149 ft 433 kts 55°
2026-04-28 15:38 6.23454 164.19154 29692 ft 432 kts 55°
2026-04-28 15:38 6.25197 164.21612 30101 ft 431 kts 55°
2026-04-28 15:38 6.26934 164.24061 30540 ft 429 kts 55°
2026-04-28 15:38 6.28663 164.26500 30884 ft 429 kts 55°
2026-04-28 15:39 6.32131 164.31391 30901 ft 432 kts 55°
2026-04-28 15:39 6.35595 164.36276 30894 ft 426 kts 55°
2026-04-28 15:40 6.39044 164.41144 30906 ft 428 kts 55°
2026-04-28 15:40 6.42505 164.46031 30903 ft 430 kts 55°
2026-04-28 15:41 6.45393 164.50108 30901 ft 430 kts 55°
2026-04-28 15:41 6.48866 164.55012 30895 ft 430 kts 55°
2026-04-28 15:42 6.52892 164.60698 30899 ft 428 kts 55°
2026-04-28 15:42 6.55783 164.64784 30898 ft 427 kts 55°
2026-04-28 15:43 6.59208 164.69625 30898 ft 426 kts 55°
2026-04-28 15:43 6.62645 164.74484 30899 ft 426 kts 55°
2026-04-28 15:44 6.66077 164.79337 30896 ft 425 kts 55°
2026-04-28 15:44 6.69503 164.84184 30900 ft 425 kts 55°
2026-04-28 15:45 6.72930 164.89032 30900 ft 425 kts 55°
2026-04-28 15:45 6.76357 164.93883 30898 ft 425 kts 55°
2026-04-28 15:46 6.79784 164.98736 30898 ft 426 kts 55°
2026-04-28 15:46 6.83217 165.03597 30898 ft 426 kts 55°
2026-04-28 15:47 6.86649 165.08460 30898 ft 426 kts 55°
2026-04-28 15:47 6.90064 165.13299 30898 ft 427 kts 55°
2026-04-28 15:48 6.93499 165.18169 30898 ft 427 kts 55°
2026-04-28 15:48 6.96938 165.23046 30898 ft 427 kts 55°
2026-04-28 15:49 7.00400 165.27906 30899 ft 427 kts 54°
2026-04-28 15:49 7.03938 165.32699 30896 ft 426 kts 54°
2026-04-28 15:50 7.07489 165.37484 30897 ft 426 kts 54°
2026-04-28 15:50 7.11004 165.42240 30899 ft 426 kts 54°
2026-04-28 15:51 7.14528 165.47023 30899 ft 425 kts 54°
2026-04-28 15:51 7.18050 165.51809 30899 ft 425 kts 54°
2026-04-28 15:52 7.21569 165.56592 30898 ft 425 kts 54°
2026-04-28 15:52 7.25086 165.61373 30897 ft 424 kts 54°
2026-04-28 15:53 7.28602 165.66156 30897 ft 424 kts 54°
2026-04-28 15:53 7.32116 165.70937 30899 ft 424 kts 55°
2026-04-28 15:54 7.35613 165.75695 30897 ft 424 kts 55°
2026-04-28 15:54 7.39127 165.80479 30901 ft 424 kts 55°
2026-04-28 15:55 7.42640 165.85262 30896 ft 424 kts 55°
2026-04-28 15:55 7.46153 165.90046 30899 ft 424 kts 55°
2026-04-28 15:56 7.49667 165.94833 30897 ft 424 kts 55°
2026-04-28 15:56 7.53156 165.99589 30899 ft 424 kts 55°
2026-04-28 15:57 7.56664 166.04371 30891 ft 420 kts 55°
2026-04-28 15:57 7.58381 166.06711 30876 ft 408 kts 55°
2026-04-28 15:57 7.60055 166.08995 30604 ft 401 kts 55°
2026-04-28 15:58 7.63366 166.13508 30700 ft 407 kts 56°
2026-04-28 15:58 7.66792 166.18190 30490 ft 426 kts 55°
2026-04-28 15:59 7.68589 166.20645 29881 ft 434 kts 55°
2026-04-28 15:59 7.70357 166.23057 29292 ft 434 kts 55°
2026-04-28 15:59 7.72144 166.25495 28848 ft 429 kts 55°
2026-04-28 15:59 7.73912 166.27907 28377 ft 426 kts 55°
2026-04-28 16:00 7.75666 166.30301 27923 ft 422 kts 55°
2026-04-28 16:00 7.77404 166.32672 27455 ft 418 kts 55°
2026-04-28 16:00 7.79129 166.35029 27006 ft 415 kts 55°
2026-04-28 16:00 7.80833 166.37357 26558 ft 411 kts 55°
2026-04-28 16:01 7.82523 166.39666 26111 ft 407 kts 55°
2026-04-28 16:01 7.84196 166.41954 25669 ft 404 kts 55°
2026-04-28 16:01 7.85858 166.44225 25230 ft 400 kts 55°
2026-04-28 16:01 7.87505 166.46477 24795 ft 397 kts 55°
2026-04-28 16:02 7.89135 166.48707 24364 ft 394 kts 55°
2026-04-28 16:02 7.90756 166.50923 23933 ft 391 kts 55°
2026-04-28 16:02 7.92361 166.53118 23502 ft 387 kts 55°
2026-04-28 16:02 7.93954 166.55298 23081 ft 384 kts 55°
2026-04-28 16:03 7.95534 166.57460 22660 ft 381 kts 55°
2026-04-28 16:03 7.97104 166.59608 22241 ft 378 kts 55°
2026-04-28 16:03 7.98659 166.61736 21825 ft 375 kts 55°
2026-04-28 16:03 8.00204 166.63851 21412 ft 372 kts 56°
2026-04-28 16:04 8.01733 166.65945 21007 ft 370 kts 56°
2026-04-28 16:04 8.03230 166.67995 20607 ft 367 kts 56°
2026-04-28 16:04 8.04740 166.70063 20202 ft 364 kts 56°
2026-04-28 16:04 8.06237 166.72112 19800 ft 361 kts 56°
2026-04-28 16:05 8.07722 166.74146 19403 ft 358 kts 56°
2026-04-28 16:05 8.09195 166.76165 19007 ft 356 kts 56°
2026-04-28 16:05 8.10659 166.78170 18614 ft 353 kts 56°
2026-04-28 16:05 8.12108 166.80156 18224 ft 350 kts 56°
2026-04-28 16:06 8.13546 166.82127 17837 ft 348 kts 56°
2026-04-28 16:06 8.14975 166.84086 17453 ft 345 kts 56°
2026-04-28 16:06 8.16397 166.86035 17069 ft 343 kts 56°
2026-04-28 16:06 8.17805 166.87967 16688 ft 340 kts 56°
2026-04-28 16:07 8.19207 166.89889 16307 ft 338 kts 56°
2026-04-28 16:07 8.20596 166.91793 15918 ft 336 kts 56°
2026-04-28 16:07 8.23327 166.95540 15190 ft 331 kts 56°
2026-04-28 16:08 8.24689 166.97409 14816 ft 329 kts 56°
2026-04-28 16:08 8.26041 166.99265 14447 ft 327 kts 56°
2026-04-28 16:08 8.27382 167.01105 14076 ft 325 kts 56°
2026-04-28 16:09 8.30044 167.04758 13347 ft 321 kts 56°
2026-04-28 16:09 8.31360 167.06566 12988 ft 319 kts 56°
2026-04-28 16:09 8.32670 167.08364 12625 ft 317 kts 56°
2026-04-28 16:10 8.35266 167.11929 11908 ft 313 kts 56°
2026-04-28 16:10 8.36554 167.13698 11550 ft 313 kts 57°
2026-04-28 16:10 8.39147 167.17263 10823 ft 314 kts 57°
2026-04-28 16:11 8.41711 167.20785 10302 ft 304 kts 57°
2026-04-28 16:11 8.44187 167.24188 10017 ft 296 kts 57°
2026-04-28 16:12 8.46571 167.27465 9217 ft 298 kts 57°
2026-04-28 16:12 8.47814 167.29180 8441 ft 306 kts 57°
2026-04-28 16:13 8.50373 167.32703 6802 ft 315 kts 56°
2026-04-28 16:13 8.51669 167.34486 6161 ft 312 kts 56°
2026-04-28 16:13 8.54156 167.37900 5411 ft 291 kts 57°
2026-04-28 16:14 8.56464 167.41074 4892 ft 267 kts 57°
2026-04-28 16:14 8.58604 167.44022 4388 ft 258 kts 57°
2026-04-28 16:15 8.60737 167.46965 3886 ft 260 kts 57°
2026-04-28 16:15 8.61799 167.48428 3777 ft 255 kts 57°
2026-04-28 16:15 8.62823 167.49836 3627 ft 242 kts 57°
2026-04-28 16:16 8.64695 167.52410 3447 ft 213 kts 57°
2026-04-28 16:16 8.65542 167.53574 3339 ft 200 kts 57°
2026-04-28 16:17 8.66733 167.55987 3092 ft 193 kts 76°
2026-04-28 16:17 8.67122 167.57295 2907 ft 196 kts 76°
2026-04-28 16:17 8.67522 167.58606 2722 ft 192 kts 76°
2026-04-28 16:17 8.67911 167.59862 2511 ft 181 kts 76°
2026-04-28 16:18 8.68275 167.61043 2348 ft 175 kts 76°
2026-04-28 16:18 8.68635 167.62213 2103 ft 173 kts 76°
2026-04-28 16:18 8.68989 167.63359 1871 ft 168 kts 76°
2026-04-28 16:18 8.69327 167.64455 1644 ft 158 kts 76°
2026-04-28 16:19 8.69645 167.65482 1462 ft 146 kts 76°
2026-04-28 16:19 8.69941 167.66443 1265 ft 143 kts 76°
2026-04-28 16:19 8.70230 167.67381 1070 ft 140 kts 76°
2026-04-28 16:19 8.70521 167.68325 887 ft 142 kts 77°
2026-04-28 16:20 8.70815 167.69278 694 ft 142 kts 76°
2026-04-28 16:20 8.71110 167.70232 500 ft 142 kts 76°
2026-04-28 16:20 8.71407 167.71187 294 ft 142 kts 75°
2026-04-28 16:20 8.71700 167.72147 61 ft 143 kts 75°
2026-04-28 16:21 8.71979 167.73062 -48 ft 117 kts 72°
2026-04-28 16:21 8.72158 167.73638 -46 ft 56 kts 72°
2026-04-28 16:21 8.72225 167.73857 -37 ft 20 kts 73°
2026-04-28 16:21 8.72264 167.73966 -40 ft 12 kts 50°
2026-04-28 16:22 8.72335 167.73974 -41 ft 8 kts 343°
2026-04-28 16:22 8.72389 167.73958 -51 ft 8 kts 343°
2026-04-28 16:22 8.72441 167.73943 -37 ft 8 kts 344°
2026-04-28 16:22 8.72503 167.73925 -43 ft 11 kts 344°
2026-04-28 16:23 8.72586 167.73903 -37 ft 14 kts 354°
2026-04-28 16:23 8.72684 167.73935 -37 ft 15 kts 28°
2026-04-28 16:23 8.72740 167.74005 -37 ft 13 kts 97°
2026-04-28 16:23 8.72706 167.74074 -45 ft 8 kts 119°
2026-04-28 16:24 8.72698 167.74090 -37 ft 0 kts 118°